Location: Bay Ridge
(40.6340°N, 74.0146°W)
Time: 08:05:59
(UTC+00:00)

Cosmos 1766 Rocket - Pass Details

Date: 15 November 2019
Orbit: 606 x 632 km, 82.5° (Epoch: 11 December)

Event Time Altitude Azimuth Distance (km) Brightness Sun altitude
Rises 10:55:26 0° 211° (SSW) 2,849 6.8 -9.2°
Reaches altitude 10° 10:57:52 10° 223° (SW) 1,950 5.9 -8.8°
Maximum altitude 11:01:39 30° 284° (WNW) 1,109 4.3 -8.1°
Drops below altitude 10° 11:05:29 10° 346° (NNW) 1,968 5.8 -7.4°
Sets 11:07:57 0° 357° (N) 2,880 6.8 -6.9°
